Hourly Data Report for April 06, 2021

CLYDE RIVER A
NUNAVUT
Current Station Operator: NAVCAN

70°29'09.000" N
68°31'01.000" W
26.50 m
2400804
71090
YCY

Download Data

Hourly Data (April 2021)
Hourly Data Report for April 6, 2021
TIME
LST
Temp Definition
°C
Dew Point Definition
°C
Rel Hum Definition
%
Precip. Amount Definition
mm

Wind Dir Definition
10's deg

Wind Spd Definition
km/h
Visibility Definition
km
Stn Press Definition
kPa
Hmdx Definition


Wind Chill Definition


Weather Definition


00:00 -19.1 -21.5 82 0.0 LegendMM 4 16.1 102.02   -22 LegendNANA
01:00 -14.1 -16.3 84 0.0 24 41 1.2 101.99   -26 Snow,Blowing Snow
02:00 -14.4 -18.0 74 0.0 20 21 16.1 102.05   -24 LegendNANA
03:00 -13.6 -20.5 57 0.0 22 17 16.1 102.10   -22 LegendNANA
04:00 -14.7 -19.9 65 0.0 24 21 16.1 102.14   -24 LegendNANA
05:00 -16.2 -20.1 73 0.0 21 15 16.1 102.20   -24 LegendNANA
06:00 -14.3 -17.8 75 0.0 21 34 16.1 102.25   -26 LegendNANA
07:00 -13.5 -17.3 73 0.0 23 37 9.7 102.31   -25 Haze
08:00 -13.1 -17.0 73 0.0 22 22 16.1 102.38   -22 LegendNANA
09:00 -12.4 -16.0 75 0.0 24 30 8.1 102.40   -23 Haze
10:00 -11.6 -15.7 72 0.0 22 24 16.1 102.44   -21 LegendNANA
11:00 -10.6 -16.4 63 0.0 LegendMM 4 16.1 102.45   -13 LegendNANA
12:00 -11.1 -15.9 68 0.0 22 32 12.9 102.46   -21 LegendNANA
13:00 -12.0 -15.0 79 0.0 22 37 3.2 102.48   -23 Haze
14:00 -10.6 -16.0 65 0.0 27 37 11.3 102.60   -21 LegendNANA
15:00 -11.4 -15.3 73 0.0 23 30 16.1 102.61   -21 LegendNANA
16:00 -11.2 -15.8 69 0.0 22 22 16.1 102.66   -20 LegendNANA
17:00 -10.3 -17.5 56 0.0 LegendMM 4 16.1 102.73   -13 LegendNANA
18:00 -13.2 -18.1 67 0.0 26 11 16.1 102.80   -19 LegendNANA
19:00 -14.7 -18.9 71 0.0 26 13 16.1 102.83   -22 LegendNANA
20:00 -16.2 -20.4 71 0.0 LegendMM 4 16.1 102.91   -19 LegendNANA
21:00 -16.4 -20.8 69 0.0 8 8 16.1 102.95   -22 LegendNANA
22:00 -18.4 -22.5 71 0.0 LegendMM 4 16.1 103.00   -22 LegendNANA
23:00 -20.0 -23.4 75 0.0 27 8 16.1 103.04   -26 LegendNANA

Notes on Data Quality.

Legend

  • E = Estimated
  • M = Missing
  • NA = Not Available*
  • [empty] = Indicates an unobserved value
Date modified: